Regional Weather Roundup
Issued by NWS State College, PA

Home | Current Version | Previous Version | Graphics & Text | Print | Product List | Glossary On
Versions: 1 2 3 4 5 6 7 8 9 10 11 12 13 14 15 16 17 18 19 20 21 22 23 24 25 26 27 28 29 30 31 32 33 34 35 36 37 38 39 40 41 42 43 44 45 46 47 48 49 50
000
ASUS41 KCTP 312010
RWRCTP

REGIONAL WEATHER ROUNDUP
NATIONAL WEATHER SERVICE STATE COLLEGE PA
400 PM EDT FRI OCT 31 2014

Note: "fair" indicates few or no clouds below 12,000 feet with no
significant weather and/or obstructions to visibility.

* = STATION THAT DOES NOT REPORT PRECIPITATION /E.G. RAIN...SNOW...ETC/
    THUNDER OR FOG.

PAZ002>004-007>009-013>016-020>023-029>032-312100-
WESTERN PENNSYLVANIA

CITY           SKY/WX    TMP DP  RH WIND       PRES   REMARKS
ERIE           CLOUDY    49  36  61 SE6       29.86S
MEADVILLE      CLOUDY    44  35  70 S5        29.85S
FRANKLIN*      CLOUDY    43  37  81 SE6       29.87S
NEW CASTLE       N/A     45  39  79 CALM      29.87S
BEAVER COUNTY  LGT RAIN  43  39  87 SE3       29.86F
BUTLER*        CLOUDY    43  37  81 CALM      29.88F
PITTSBURGH INT LGT RAIN  43  39  86 CALM      29.86F
PITTSBURGH     LGT RAIN  43  37  79 N3        29.85F
INDIANA*       PTSUNNY   46  37  71 NE5       29.88F
LATROBE        DRIZZLE   48  37  66 CALM      29.86F
WASHINGTON CO* CLOUDY    43  39  87 CALM      29.87F
$$

PAZ004>006-010>012-017>019-024>028-033>037-041-042-045-046-049>053-312100-
CENTRAL PENNSYLVANIA

CITY           SKY/WX    TMP DP  RH WIND       PRES   REMARKS
BRADFORD       LGT RAIN  39  35  86 CALM      29.86S FOG
DUBOIS         LGT RAIN  41  37  86 CALM      29.85S FOG
CLEARFIELD     CLOUDY    46  34  62 E6        29.86F
JOHNSTOWN      CLOUDY    42  34  73 E5        29.82F
ALTOONA        CLOUDY    46  36  68 SE6       29.85F
STATE COLLEGE  CLOUDY    46  34  61 CALM      29.86F
WILLIAMSPORT   CLOUDY    50  32  50 W5        29.88F
SELINSGROVE    PTSUNNY   52  34  50 VRB3      29.89F
FT INDIANTOWN  CLOUDY    52  33  46 SE2       29.88F
CAPITAL CITY   MOSUNNY   53  34  48 CALM      29.88F
HARRISBURG     PTSUNNY   53  35  50 W3        29.87F
YORK           CLOUDY    53  32  44 E3        29.88F
$$

PAZ038>040-043-044-047-048-054-055-060>062-067>071-312100-
EASTERN PENNSYLVANIA

CITY           SKY/WX    TMP DP  RH WIND       PRES   REMARKS
SCRANTON       MOSUNNY   54  28  36 N6        29.87F
MOUNT POCONO   MOSUNNY   48  30  49 SE9       29.87F
ALLENTOWN      CLOUDY    52  34  50 E8        29.89F
QUAKERTOWN*    CLOUDY    48  36  61 E3        29.90F
READING        MOSUNNY   55  30  38 VRB3      29.87F
LANCASTER      CLOUDY    54  33  45 NE12      29.87F
COATESVILLE    CLOUDY    52  34  50 E8        29.88S
POTTSTOWN      CLOUDY    50  36  58 VRB5      29.90F
BLUE BELL      CLOUDY    52  37  58 CALM      29.88F
DOYLESTOWN     CLOUDY    50  35  56 NE8       29.89F
WILLOW GROVE   NOT AVBL
NORTH PHILA    CLOUDY    52  34  50 N9        29.91F
PHILADELPHIA   PTSUNNY   54  36  50 N8        29.89F
$$



USA.gov is the U.S. government's official web portal to all federal, state and local government web resources and services.